[TLELIST] Archives

 

Current TLEs

February 20th 2007 PDT

HST 1 20580U 90037B 07050.85589509 .00000417 00000-0 19547-4 0 8110 2 20580 028.4676 235.2119 0003651 289.8879 070.1319 15.00193338722329 ISS (ZARYA) 1 25544U 98067A 07051.43888007 .00021612 00000-0 12345-3 0 6796 2 25544 051.6363 347.3330 0021018 228.0593 238.7427 15.78528405472337 CXO 1 25867U 99040B 07051.29166667 .00000323 00000-0 00000+0 0 376 2 25867 061.1920 091.8191 6078035 286.1385 355.7625 00.37809293 1814 ____________________________________________________________________ These 2-Line ...Continue Reading

Current TLEs

February 19th 2007 PDT

HST 1 20580U 90037B 07048.92660235 +.00000426 +00000-0 +20278-4 0 08259 2 20580 028.4679 247.7902 0003696 269.6250 090.3915 15.00192441722036 ISS (ZARYA) 1 25544U 98067A 07050.42516324 .00021731 00000-0 12434-3 0 6739 2 25544 051.6367 352.5745 0021130 223.7355 238.5999 15.78484013472172 CXO 1 25867U 99040B 07051.29166667 .00000323 00000-0 00000+0 0 376 2 25867 061.1920 091.8191 6078035 286.1385 355.7625 00.37809293 1814 ____________________________________________________________________ These 2-Line ...Continue Reading

Current TLEs

February 18th 2007 PDT

HST 1 20580U 90037B 07048.92660235 .00000426 00000-0 20278-4 0 8103 2 20580 028.4679 247.7902 0003696 269.6250 090.3915 15.00192441722036 ISS (ZARYA) 1 25544U 98067A 07049.35589694 .00021447 00000-0 12303-3 0 6660 2 25544 051.6362 358.1021 0021152 220.0170 282.1428 15.78435376472007 CXO 1 25867U 99040B 07048.66666667 .00000355 00000-0 00000+0 0 362 2 25867 061.1694 091.8911 6073715 286.1336 358.4930 00.37807543 1802 ____________________________________________________________________ These 2-Line ...Continue Reading

Current TLEs

February 17th 2007 PDT

HST 1 20580U 90037B 07047.86216499 .00000409 00000-0 18913-4 0 8096 2 20580 028.4682 254.7296 0003739 258.6350 101.3821 15.00191794721871 ISS (ZARYA) 1 25544U 98067A 07048.34200308 .00021245 00000-0 12218-3 0 6593 2 25544 051.6364 003.3445 0021014 215.7188 281.3023 15.78389961471846 CXO 1 25867U 99040B 07048.66666667 .00000355 00000-0 00000+0 0 362 2 25867 061.1694 091.8911 6073715 286.1336 358.4930 00.37807543 1802 ____________________________________________________________________ These 2-Line ...Continue Reading

Current TLEs

February 16th 2007 PDT

HST 1 20580U 90037B 07045.93287173 +.00000398 +00000-0 +18076-4 0 08243 2 20580 028.4685 267.3067 0003766 238.7372 121.2849 15.00190822721583 ISS (ZARYA) 1 25544U 98067A 07047.51362468 .00020765 00000-0 11974-3 0 6535 2 25544 051.6359 007.6238 0020893 212.9234 253.9473 15.78352333471715 CXO 1 25867U 99040B 07046.00000000 .00000341 00000-0 00000+0 0 355 2 25867 061.1532 091.9509 6067928 286.1587 355.4848 00.37803966 1792 ____________________________________________________________________ These 2-Line ...Continue Reading

Current TLEs

February 15th 2007 PDT

HST 1 20580U 90037B 07045.93287173 .00000398 00000-0 18076-4 0 8085 2 20580 028.4685 267.3067 0003766 238.7372 121.2849 15.00190822721583 ISS (ZARYA) 1 25544U 98067A 07046.49995491 .00019859 00000-0 11496-3 0 6462 2 25544 051.6354 012.8631 0020789 209.1461 254.1541 15.78305657471557 CXO 1 25867U 99040B 07046.00000000 +.00000341 +00000-0 +00000-0 0 00345 2 25867 061.1532 091.9509 6067928 286.1587 355.4848 00.37803966001792 ____________________________________________________________________ These 2-Line ...Continue Reading

Current TLEs

February 14th 2007 PDT

HST 1 20580U 90037B 07044.86843381 .00000399 00000-0 18167-4 0 8076 2 20580 028.4687 274.2457 0003768 227.8267 132.1999 15.00190342721426 ISS (ZARYA) 1 25544U 98067A 07045.37031951 .00018565 00000-0 10798-3 0 6399 2 25544 051.6346 018.6993 0020834 204.4646 316.0976 15.78254770471376 CXO 1 25867U 99040B 07040.70833333 +.00000311 +00000-0 +00000-0 0 00335 2 25867 061.1239 092.0425 6057805 286.2773 355.0198 00.37804874001777 ____________________________________________________________________ These 2-Line ...Continue Reading

Current TLEs

February 13th 2007 PDT

HST 1 20580U 90037B 07042.93913963 +.00000436 +00000-0 +21020-4 0 08104 2 20580 028.4689 286.8219 0003766 207.4466 152.5927 15.00189642721132 ISS (ZARYA) 1 25544U 98067A 07044.47202664 .00018332 00000-0 10682-3 0 6349 2 25544 051.6347 023.3452 0021006 201.3843 251.9282 15.78219048471238 CXO 1 25867U 99040B 07040.70833333 +.00000311 +00000-0 +00000-0 0 00335 2 25867 061.1239 092.0425 6057805 286.2773 355.0198 00.37804874001777 ____________________________________________________________________ These 2-Line ...Continue Reading

Current TLEs

February 12th 2007 PDT

HST 1 20580U 90037B 07043.07219429 .00000441 00000-0 21472-4 0 8068 2 20580 028.4690 285.9545 0003766 208.6048 151.4336 15.00189767721157 ISS (ZARYA) 1 25544U 98067A 07043.52326586 .00017707 00000-0 10346-3 0 6278 2 25544 051.6345 028.2481 0021284 197.6518 261.6022 15.78181199471084 CXO 1 25867U 99040B 07040.70833333 +.00000311 +00000-0 +00000-0 0 00335 2 25867 061.1239 092.0425 6057805 286.2773 355.0198 00.37804874001777 ____________________________________________________________________ These 2-Line ...Continue Reading

Current TLEs

February 11th 2007 PDT

HST 1 20580U 90037B 07042.00775594 .00000446 00000-0 21815-4 0 8055 2 20580 028.4691 292.8931 0003778 197.7988 162.2469 15.00189219720998 ISS (ZARYA) 1 25544U 98067A 07042.50919139 .00020032 00000-0 11664-3 0 6221 2 25544 051.6342 033.4859 0021381 193.9593 260.0593 15.78150652470926 CXO 1 25867U 99040B 07040.70833333 +.00000311 +00000-0 +00000-0 0 00335 2 25867 061.1239 092.0425 6057805 286.2773 355.0198 00.37804874001777 ____________________________________________________________________ These 2-Line ...Continue Reading
  • This mailing list is a public mailing list - anyone may join or leave, at any time.
  • This mailing list is announce-only.

International Space Station (ISS) / Hubble Space Telescope (HST) / Chandra X-Ray Observatory Orbital Data via EMAIL

Privacy Policy:

Private list